Time,TemperatureF,DewpointF,PressureIn,WindDirection,WindDirectionDegrees,WindSpeedMPH,WindSpeedGustMPH,Humidity,HourlyPrecipIn,Conditions,Clouds,dailyrainin,SoftwareType,DateUTC
2013-01-19 00:07:00,28.6,28.1,30.34,ENE,67,0.0,-999.0,98,-99.99,,,0.00,Acu-Link.com,2013-01-19 05:07:00,
2013-01-19 00:23:00,28.4,27.9,30.34,SW,225,0.0,-999.0,98,-99.99,,,0.00,Acu-Link.com,2013-01-19 05:23:00,
2013-01-19 00:38:00,28.4,27.9,30.35,South,180,0.0,-999.0,98,-99.99,,,0.00,Acu-Link.com,2013-01-19 05:38:00,
2013-01-19 00:53:00,28.2,27.7,30.34,SE,135,0.0,-999.0,98,-99.99,,,0.00,Acu-Link.com,2013-01-19 05:53:00,
2013-01-19 01:08:00,28.4,27.9,30.34,SSE,157,0.0,-999.0,98,-99.99,,,0.00,Acu-Link.com,2013-01-19 06:08:00,
2013-01-19 01:23:00,28.6,28.1,30.34,South,180,0.0,-999.0,98,-99.99,,,0.00,Acu-Link.com,2013-01-19 06:23:00,
2013-01-19 01:38:00,28.8,28.3,30.34,South,180,0.0,-999.0,98,-99.99,,,0.00,Acu-Link.com,2013-01-19 06:38:00,
2013-01-19 01:53:00,29.1,28.6,30.34,South,180,0.0,-999.0,98,-99.99,,,0.00,Acu-Link.com,2013-01-19 06:53:00,
2013-01-19 02:08:00,29.7,29.2,30.34,SSE,157,1.7,-999.0,98,-99.99,,,0.00,Acu-Link.com,2013-01-19 07:08:00,
2013-01-19 02:23:00,29.5,29.0,30.34,West,270,0.0,-999.0,98,-99.99,,,0.00,Acu-Link.com,2013-01-19 07:23:00,
2013-01-19 02:39:00,29.5,29.0,30.34,East,90,0.0,-999.0,98,-99.99,,,0.00,Acu-Link.com,2013-01-19 07:39:00,
2013-01-19 02:54:00,29.1,28.6,30.33,West,270,0.0,-999.0,98,-99.99,,,0.00,Acu-Link.com,2013-01-19 07:54:00,
2013-01-19 03:09:00,28.9,28.4,30.33,SSE,157,0.0,-999.0,98,-99.99,,,0.00,Acu-Link.com,2013-01-19 08:09:00,
2013-01-19 03:24:00,28.9,28.4,30.33,SW,225,0.0,-999.0,98,-99.99,,,0.00,Acu-Link.com,2013-01-19 08:24:00,
2013-01-19 03:39:00,28.8,28.3,30.32,SSE,157,0.0,-999.0,98,-99.99,,,0.00,Acu-Link.com,2013-01-19 08:39:00,
2013-01-19 03:54:00,28.8,28.3,30.32,ESE,112,1.1,-999.0,98,-99.99,,,0.00,Acu-Link.com,2013-01-19 08:54:00,
2013-01-19 04:35:00,29.3,28.8,30.32,SSE,157,1.7,-999.0,98,-99.99,,,0.00,Acu-Link.com,2013-01-19 09:35:00,
2013-01-19 04:50:00,29.3,28.8,30.31,NNW,337,0.0,-999.0,98,-99.99,,,0.00,Acu-Link.com,2013-01-19 09:50:00,
2013-01-19 05:05:00,28.9,28.4,30.31,NNE,22,0.0,-999.0,98,-99.99,,,0.00,Acu-Link.com,2013-01-19 10:05:00,
2013-01-19 05:21:00,28.0,27.5,30.32,West,270,0.0,-999.0,98,-99.99,,,0.00,Acu-Link.com,2013-01-19 10:21:00,
2013-01-19 05:36:00,27.7,27.2,30.31,NNW,337,0.0,-999.0,98,-99.99,,,0.00,Acu-Link.com,2013-01-19 10:36:00,
2013-01-19 05:51:00,27.3,26.8,30.31,SSE,157,0.0,-999.0,98,-99.99,,,0.00,Acu-Link.com,2013-01-19 10:51:00,
2013-01-19 06:06:00,27.1,26.6,30.31,NNW,337,0.0,-999.0,98,-99.99,,,0.00,Acu-Link.com,2013-01-19 11:06:00,
2013-01-19 07:56:00,26.2,25.7,30.31,West,270,0.0,-999.0,98,-99.99,,,0.00,Acu-Link.com,2013-01-19 12:56:00,
2013-01-19 08:11:00,26.8,26.3,30.31,West,270,0.0,-999.0,98,-99.99,,,0.00,Acu-Link.com,2013-01-19 13:11:00,
2013-01-19 08:26:00,28.2,27.7,30.31,SSW,202,0.0,-999.0,98,-99.99,,,0.00,Acu-Link.com,2013-01-19 13:26:00,
2013-01-19 08:41:00,30.6,30.1,30.31,SE,135,0.0,-999.0,98,-99.99,,,0.00,Acu-Link.com,2013-01-19 13:41:00,
2013-01-19 08:57:00,33.4,32.9,30.31,North,0,3.2,-999.0,98,-99.99,,,0.00,Acu-Link.com,2013-01-19 13:57:00,
2013-01-19 09:12:00,34.9,34.4,30.31,SSW,202,2.7,-999.0,98,-99.99,,,0.00,Acu-Link.com,2013-01-19 14:12:00,
2013-01-19 09:27:00,38.3,33.6,30.31,NNE,22,1.7,-999.0,83,-99.99,,,0.00,Acu-Link.com,2013-01-19 14:27:00,
2013-01-19 09:42:00,40.5,34.5,30.32,ESE,112,1.1,-999.0,79,-99.99,,,0.00,Acu-Link.com,2013-01-19 14:42:00,
2013-01-19 09:57:00,41.4,34.1,30.31,South,180,3.2,-999.0,75,-99.99,,,0.00,Acu-Link.com,2013-01-19 14:57:00,
2013-01-19 10:12:00,41.9,34.6,30.31,North,0,2.7,-999.0,75,-99.99,,,0.00,Acu-Link.com,2013-01-19 15:12:00,
2013-01-19 10:42:00,43.7,37.0,30.29,West,270,2.2,-999.0,77,-99.99,,,0.00,Acu-Link.com,2013-01-19 15:42:00,
2013-01-19 10:57:00,43.9,36.2,30.28,SSW,202,3.2,-999.0,74,-99.99,,,0.00,Acu-Link.com,2013-01-19 15:57:00,
2013-01-19 11:13:00,44.8,36.0,30.26,NNW,337,2.2,-999.0,71,-99.99,,,0.00,Acu-Link.com,2013-01-19 16:13:00,
2013-01-19 11:28:00,46.0,36.0,30.25,SW,225,1.7,-999.0,68,-99.99,,,0.00,Acu-Link.com,2013-01-19 16:28:00,
2013-01-19 11:43:00,46.8,35.7,30.24,South,180,1.7,-999.0,65,-99.99,,,0.00,Acu-Link.com,2013-01-19 16:43:00,
2013-01-19 11:58:00,47.1,35.9,30.22,NW,315,1.1,-999.0,65,-99.99,,,0.00,Acu-Link.com,2013-01-19 16:58:00,
2013-01-19 12:28:00,48.9,34.8,30.20,NNE,22,2.7,-999.0,58,-99.99,,,0.00,Acu-Link.com,2013-01-19 17:28:00,
2013-01-19 12:43:00,49.5,36.2,30.19,ESE,112,4.7,-999.0,60,-99.99,,,0.00,Acu-Link.com,2013-01-19 17:43:00,
2013-01-19 12:58:00,50.0,34.9,30.17,WNW,292,3.2,-999.0,56,-99.99,,,0.00,Acu-Link.com,2013-01-19 17:58:00,
2013-01-19 13:13:00,50.9,33.9,30.16,West,270,2.2,-999.0,52,-99.99,,,0.00,Acu-Link.com,2013-01-19 18:13:00,
2013-01-19 13:44:00,51.3,35.2,30.15,SE,135,1.1,-999.0,54,-99.99,,,0.00,Acu-Link.com,2013-01-19 18:44:00,
2013-01-19 13:59:00,52.2,37.0,30.13,SE,135,1.7,-999.0,56,-99.99,,,0.00,Acu-Link.com,2013-01-19 18:59:00,
2013-01-19 14:14:00,53.2,36.5,30.12,SSE,157,2.2,-999.0,53,-99.99,,,0.00,Acu-Link.com,2013-01-19 19:14:00,
2013-01-19 14:29:00,53.8,35.6,30.12,West,270,2.2,-999.0,50,-99.99,,,0.00,Acu-Link.com,2013-01-19 19:29:00,
2013-01-19 14:44:00,54.5,36.2,30.11,SW,225,1.7,-999.0,50,-99.99,,,0.00,Acu-Link.com,2013-01-19 19:44:00,
2013-01-19 14:59:00,54.9,35.1,30.10,SW,225,4.2,-999.0,47,-99.99,,,0.00,Acu-Link.com,2013-01-19 19:59:00,
2013-01-19 15:14:00,53.4,34.2,30.10,ESE,112,2.2,-999.0,48,-99.99,,,0.00,Acu-Link.com,2013-01-19 20:14:00,
2013-01-19 15:29:00,54.9,35.1,30.10,South,180,2.7,-999.0,47,-99.99,,,0.00,Acu-Link.com,2013-01-19 20:29:00,
2013-01-19 15:45:00,54.3,34.0,30.09,West,270,3.7,-999.0,46,-99.99,,,0.00,Acu-Link.com,2013-01-19 20:45:00,
2013-01-19 16:15:00,53.1,33.9,30.09,North,0,1.1,-999.0,48,-99.99,,,0.00,Acu-Link.com,2013-01-19 21:15:00,
2013-01-19 17:15:00,48.7,33.7,30.07,SSE,157,0.0,-999.0,56,-99.99,,,0.00,Acu-Link.com,2013-01-19 22:15:00,
2013-01-19 17:30:00,47.1,33.5,30.06,SE,135,0.0,-999.0,59,-99.99,,,0.00,Acu-Link.com,2013-01-19 22:30:00,
2013-01-19 18:00:00,43.9,32.9,30.06,SE,135,0.0,-999.0,65,-99.99,,,0.00,Acu-Link.com,2013-01-19 23:00:00,
2013-01-19 18:16:00,43.0,33.5,30.06,SE,135,0.0,-999.0,69,-99.99,,,0.00,Acu-Link.com,2013-01-19 23:16:00,
2013-01-19 18:46:00,40.6,32.6,30.05,North,0,0.0,-999.0,73,-99.99,,,0.00,Acu-Link.com,2013-01-19 23:46:00,
2013-01-19 19:01:00,39.9,33.6,30.06,WNW,292,0.0,-999.0,78,-99.99,,,0.00,Acu-Link.com,2013-01-20 00:01:00,
2013-01-19 19:16:00,39.0,33.1,30.06,SW,225,0.0,-999.0,79,-99.99,,,0.00,Acu-Link.com,2013-01-20 00:16:00,
2013-01-19 20:01:00,38.8,34.4,30.06,ESE,112,0.0,-999.0,84,-99.99,,,0.00,Acu-Link.com,2013-01-20 01:01:00,
2013-01-19 20:16:00,39.4,35.0,30.06,SSE,157,0.0,-999.0,84,-99.99,,,0.00,Acu-Link.com,2013-01-20 01:16:00,
2013-01-19 21:17:00,39.6,36.3,30.04,WNW,292,0.0,-999.0,88,-99.99,,,0.00,Acu-Link.com,2013-01-20 02:17:00,
2013-01-19 21:32:00,40.1,36.5,30.04,ESE,112,0.0,-999.0,87,-99.99,,,0.00,Acu-Link.com,2013-01-20 02:32:00,
2013-01-19 21:47:00,40.1,37.1,30.03,SE,135,1.1,-999.0,89,-99.99,,,0.00,Acu-Link.com,2013-01-20 02:47:00,
2013-01-19 22:48:00,42.4,40.0,30.01,SE,135,4.2,-999.0,91,-99.99,,,0.00,Acu-Link.com,2013-01-20 03:48:00,
2013-01-19 23:03:00,42.1,40.5,30.01,SSW,202,2.2,-999.0,94,-99.99,,,0.00,Acu-Link.com,2013-01-20 04:03:00,
2013-01-19 23:18:00,41.7,41.2,30.01,NNE,22,1.7,-999.0,98,-99.99,,,0.00,Acu-Link.com,2013-01-20 04:18:00,
2013-01-19 23:33:00,41.9,41.4,30.00,NNE,22,1.1,-999.0,98,-99.99,,,0.00,Acu-Link.com,2013-01-20 04:33:00,